Voltar ao catálogo

LUCH (OLYMP) 2

AtivoComunicaçõesGEO
NORAD 55841·PAYLOAD·🇷🇺 Russia

Lançado Mar 12, 2023 de Baikonur Cosmodrome

Loading…

TLE

AtualizadoSource: Space-Track

Época: Sep 14, 2026, 17:31 UTC

1 55841U 23031A   26257.72994740  .00000025  00000-0  00000+0 0  9992
2 55841   0.0160 125.4381 0000252 210.2841 342.7743  1.00273770 12834

Acompanhe LUCH (OLYMP) 2 em tempo real com AllMySat

Download on the App Store